Date String (YYYY-MM-DD hh:mm:ss) UTC,Instrument flags,absolute air pressure of the measurement (hPa),sample flow rate (lpm),inlet stack bypass flow (lpm),air temperature of the measurement (°C),ambient temperature measured by the external sensor (°C),aerosol sample conditioner tube jacket temperature (°C),OPC LED temperature (°C),internal box temperature (°C),relative humidity of the measurement (%),span deviation,mass concentration of particles derived from Lorenz-Mie calculation of OPC scattering (μg/m³),mass concentration of particles derived from Lorenz-Mie calculation of OPC scattering (μg/m³),mass concentration of particles derived from Lorenz-Mie calculation of OPC scattering (μg/m³)
DateTimeUTC,F1_M11,P_M11,Q1_M11,Q2_M11,T1_M11,T2_M11,T3_M11,T4_M11,T5_M11,U1_M11,ZSPAN_M11,X0_M11,X2_M11,X1_M11
2023-10-11 12:00:00,SystemResetWarning,0817.2,5.00,000.00,029.2,027.7,000.0,037.6,030.7,12.2,0000.0,0007.12,0003.88,0003.40
2023-10-11 12:01:00,SystemResetWarning,0817.2,4.99,000.00,029.2,027.7,000.0,037.6,030.8,12.1,0000.0,0006.88,0003.86,0003.41
2023-10-11 12:02:00,SystemResetWarning,0817.2,5.00,000.00,029.2,027.7,000.0,037.6,030.8,12.1,0000.0,0006.64,0003.85,0003.42
2023-10-11 12:03:00,SystemResetWarning,0817.2,5.00,000.00,029.2,027.7,000.0,037.7,030.8,12.1,0000.0,0006.56,0003.85,0003.44
2023-10-11 12:04:00,SystemResetWarning,0817.2,5.00,000.00,029.2,027.7,000.0,037.7,030.8,12.1,0000.0,0006.83,0003.88,0003.46
2023-10-11 12:05:00,SystemResetWarning,0817.2,5.00,000.00,029.2,027.7,000.0,037.7,030.8,12.1,0000.0,0007.41,0003.92,0003.48
2023-10-11 12:06:00,SystemResetWarning,0817.2,5.00,000.00,029.2,027.7,000.0,037.7,030.8,12.2,0000.0,0007.59,0003.94,0003.49
2023-10-11 12:07:00,SystemResetWarning,0817.2,5.00,000.00,029.2,027.7,000.0,037.7,030.8,12.1,0000.0,0007.61,0003.96,0003.51
2023-10-11 12:08:00,SystemResetWarning,0817.2,5.01,000.00,029.2,027.8,000.0,037.7,030.8,12.1,0000.0,0007.51,0003.95,0003.52
2023-10-11 12:09:00,SystemResetWarning,0817.2,4.99,000.00,029.2,027.8,000.0,037.7,030.8,12.1,0000.0,0007.35,0003.91,0003.52
2023-10-11 12:10:00,SystemResetWarning,0817.3,5.00,000.00,029.2,027.8,000.0,037.7,030.8,12.2,0000.0,0007.43,0003.93,0003.53
2023-10-11 12:11:00,SystemResetWarning,0817.3,4.99,000.00,029.2,027.8,000.0,037.7,030.8,12.2,0000.0,0008.04,0003.96,0003.54
2023-10-11 12:12:00,SystemResetWarning,0817.3,5.00,000.00,029.2,027.7,000.0,037.7,030.8,12.2,0000.0,0007.98,0003.94,0003.53
2023-10-11 12:13:00,SystemResetWarning,0817.3,5.01,000.00,029.2,027.7,000.0,037.7,030.8,12.2,0000.0,0008.37,0003.94,0003.54
2023-10-11 12:14:00,SystemResetWarning,0817.3,5.00,000.00,029.2,027.7,000.0,037.7,030.8,12.3,0000.0,0008.38,0003.94,0003.54
2023-10-11 12:15:00,SystemResetWarning,0817.3,5.00,000.00,029.2,027.7,000.0,037.7,030.8,12.4,0000.0,0008.39,0003.93,0003.53
2023-10-11 12:16:00,SystemResetWarning,0817.4,5.00,000.00,029.2,027.7,000.0,037.7,030.8,12.3,0000.0,0008.04,0003.89,0003.51
2023-10-11 12:17:00,SystemResetWarning,0817.4,5.00,000.00,029.2,027.7,000.0,037.7,030.8,12.2,0000.0,0007.66,0003.85,0003.49
2023-10-11 12:18:00,SystemResetWarning,0817.4,5.00,000.00,029.2,027.7,000.0,037.7,030.8,12.3,0000.0,0007.65,0003.84,0003.47
2023-10-11 12:19:00,SystemResetWarning,0817.3,5.00,000.00,029.2,027.7,000.0,037.7,030.8,12.2,0000.0,0007.59,0003.80,0003.43
2023-10-11 12:20:00,SystemResetWarning,0817.3,5.00,000.00,029.2,027.7,000.0,037.7,030.8,12.2,0000.0,0007.52,0003.76,0003.41
2023-10-11 12:21:00,SystemResetWarning,0817.3,5.00,000.00,029.2,027.7,000.0,037.7,030.8,12.2,0000.0,0007.46,0003.74,0003.39
2023-10-11 12:22:00,SystemResetWarning,0817.2,5.00,000.00,029.2,027.7,000.0,037.7,030.8,12.2,0000.0,0006.46,0003.68,0003.37
2023-10-11 12:23:00,SystemResetWarning,0817.2,5.00,000.00,029.2,027.7,000.0,037.7,030.8,12.2,0000.0,0006.63,0003.68,0003.35
2023-10-11 12:24:00,SystemResetWarning,0817.2,5.00,000.00,029.2,027.7,000.0,037.7,030.8,12.1,0000.0,0005.97,0003.67,0003.33
2023-10-11 12:25:00,SystemResetWarning,0817.2,5.00,000.00,029.2,027.7,000.0,037.7,030.8,12.1,0000.0,0006.58,0003.66,0003.31
2023-10-11 12:26:00,SystemResetWarning,0817.2,5.00,000.00,029.2,027.7,000.0,037.7,030.8,12.2,0000.0,0007.32,0003.70,0003.29
2023-10-11 12:27:00,SystemResetWarning,0817.2,5.00,000.00,029.2,027.8,000.0,037.7,030.8,12.2,0000.0,0007.29,0003.68,0003.29
2023-10-11 12:28:00,SystemResetWarning,0817.2,5.00,000.00,029.2,027.8,000.0,037.7,030.8,12.3,0000.0,0007.30,0003.69,0003.29
2023-10-11 12:29:00,SystemResetWarning,0817.2,5.00,000.00,029.2,027.8,000.0,037.7,030.8,12.3,0000.0,0007.54,0003.70,0003.29
2023-10-11 12:30:00,SystemResetWarning,0817.2,5.01,000.00,029.3,027.8,000.0,037.7,030.8,12.2,0000.0,0008.04,0003.70,0003.30
2023-10-11 12:31:00,SystemResetWarning,0817.1,5.00,000.00,029.3,027.8,000.0,037.7,030.8,12.2,0000.0,0008.16,0003.74,0003.32
2023-10-11 12:32:00,SystemResetWarning,0817.1,4.99,000.00,029.3,027.8,000.0,037.7,030.8,12.1,0000.0,0008.29,0003.78,0003.34
2023-10-11 12:33:00,SystemResetWarning,0817.1,5.00,000.00,029.2,027.8,000.0,037.7,030.8,12.1,0000.0,0008.35,0003.78,0003.34
2023-10-11 12:34:00,SystemResetWarning,0817.1,5.00,000.00,029.3,027.8,000.0,037.7,030.8,12.1,0000.0,0008.18,0003.77,0003.34
2023-10-11 12:35:00,SystemResetWarning,0817.1,4.99,000.00,029.3,027.8,000.0,037.7,030.8,12.1,0000.0,0008.18,0003.77,0003.34
2023-10-11 12:36:00,SystemResetWarning,0817.1,5.00,000.00,029.3,027.8,000.0,037.7,030.8,12.1,0000.0,0007.70,0003.76,0003.35
2023-10-11 12:37:00,SystemResetWarning,0817.1,5.00,000.00,029.3,027.8,000.0,037.7,030.8,12.1,0000.0,0007.69,0003.73,0003.36
2023-10-11 12:38:00,SystemResetWarning,0817.1,5.01,000.00,029.3,027.8,000.0,037.7,030.8,12.1,0000.0,0007.83,0003.72,0003.37
2023-10-11 12:39:00,SystemResetWarning,0817.1,5.00,000.00,029.3,027.8,000.0,037.7,030.8,12.1,0000.0,0008.01,0003.71,0003.37
2023-10-11 12:40:00,SystemResetWarning,0817.1,5.01,000.00,029.3,027.8,000.0,037.7,030.9,12.2,0000.0,0007.81,0003.70,0003.37
2023-10-11 12:41:00,SystemResetWarning,0817.2,5.00,000.00,029.3,027.8,000.0,037.7,030.9,12.3,0000.0,0007.64,0003.72,0003.38
2023-10-11 12:42:00,SystemResetWarning,0817.2,5.00,000.00,029.3,027.8,000.0,037.7,030.8,12.4,0000.0,0008.31,0003.71,0003.36
2023-10-11 12:43:00,SystemResetWarning,0817.2,5.00,000.00,029.3,027.8,000.0,037.7,030.9,12.5,0000.0,0008.19,0003.67,0003.35
2023-10-11 12:44:00,SystemResetWarning,0817.1,4.99,000.00,029.3,027.8,000.0,037.7,030.9,12.5,0000.0,0008.17,0003.67,0003.34
2023-10-11 12:45:00,SystemResetWarning,0817.2,4.99,000.00,029.3,027.8,000.0,037.7,030.9,12.5,0000.0,0008.14,0003.66,0003.32
2023-10-11 12:46:00,SystemResetWarning,0817.1,4.99,000.00,029.3,027.8,000.0,037.7,030.9,12.3,0000.0,0008.16,0003.65,0003.29
2023-10-11 12:47:00,SystemResetWarning,0817.1,5.00,000.00,029.3,027.8,000.0,037.7,030.8,12.2,0000.0,0008.25,0003.64,0003.25
2023-10-11 12:48:00,SystemResetWarning,0817.1,5.00,000.00,029.3,027.8,000.0,037.7,030.8,12.2,0000.0,0008.08,0003.63,0003.21
2023-10-11 12:49:00,SystemResetWarning,0817.1,5.00,000.00,029.3,027.8,000.0,037.7,030.9,12.2,0000.0,0007.95,0003.62,0003.18
2023-10-11 12:50:00,SystemResetWarning,0817.1,5.00,000.00,029.3,027.8,000.0,037.7,030.9,12.2,0000.0,0007.62,0003.58,0003.13
2023-10-11 12:51:00,SystemResetWarning,0817.1,5.00,000.00,029.3,027.8,000.0,037.7,030.9,12.4,0000.0,0007.63,0003.56,0003.10
2023-10-11 12:52:00,SystemResetWarning,0817.1,5.00,000.00,029.3,027.8,000.0,037.7,030.9,12.4,0000.0,0007.30,0003.52,0003.04
2023-10-11 12:53:00,SystemResetWarning,0817.1,5.00,000.00,029.3,027.8,000.0,037.7,030.8,12.4,0000.0,0005.97,0003.49,0002.98
2023-10-11 12:54:00,SystemResetWarning,0817.1,4.99,000.00,029.3,027.8,000.0,037.7,030.9,12.4,0000.0,0006.20,0003.46,0002.91
2023-10-11 12:55:00,SystemResetWarning,0817.1,4.99,000.00,029.3,027.8,000.0,037.7,030.8,12.2,0000.0,0006.36,0003.46,0002.86
2023-10-11 12:56:00,SystemResetWarning,0817.1,5.00,000.00,029.3,027.8,000.0,037.7,030.8,12.2,0000.0,0006.44,0003.45,0002.81
2023-10-11 12:57:00,SystemResetWarning,0817.1,5.00,000.00,029.3,027.8,000.0,037.7,030.9,12.1,0000.0,0006.40,0003.41,0002.78
2023-10-11 12:58:00,SystemResetWarning,0817.1,5.00,000.00,029.3,027.8,000.0,037.7,030.9,12.2,0000.0,0006.30,0003.38,0002.78
2023-10-11 12:59:00,SystemResetWarning,0817.1,5.00,000.00,029.3,027.8,000.0,037.8,030.8,12.1,0000.0,0006.20,0003.33,0002.76
